Bullhead City, AZ

5:58 PM MST on April 21, 2018 (GMT -0700)
Laughlin-Bullhead International

Weather History for KIFP - November, 2012

Change the Weather History Date:

Tuesday, November 6, 2012

  Actual Average Record
Temperature  
Mean Temperature 76 °F -  
Max Temperature 87 °F 73 °F 93 °F (1988)
Min Temperature 66 °F 55 °F 44 °F (2011)
Cooling Degree Days 12    
Growing Degree Days 26 (Base 50)    
Moisture  
Dew Point 33 °F    
Average Humidity 20    
Maximum Humidity 30    
Minimum Humidity 14    
Precipitation  
Precipitation 0.00 in - - ()
Sea Level Pressure  
Sea Level Pressure 30.03 in    
Wind  
Wind Speed 17 mph (NNE)    
Max Wind Speed 25 mph    
Max Gust Speed 33 mph    
Visibility 10 miles    
Events Rain    
Averages and records for this station are not official NWS values.
T = Trace of Precipitation, MM = Missing Value Source: NWS Daily Summary

Daily Weather History Graph

Daily Weather History Graph

Search for Another Location

Airport or City:

Astronomy

Nov. 06, 2012 Rise Set
Actual Time 7:04 AM MST 5:38 PM MST
Civil Twilight 6:38 AM MST 6:05 PM MST
Nautical Twilight 6:08 AM MST 6:35 PM MST
Astronomical Twilight 5:38 AM MST 7:05 PM MST
Moon No Moon Rise 1:01 PM MST (11/6)
Length of Visible Light 11h 26m
Length of Day
10h 33m
Waning Gibbous, 52% of the Moon is Illuminated
Nov 6
Waning Gibbous
Nov 6
Last Quarter
Nov 13
New
Nov 20
First Quarter
Nov 28
Full

Hourly Weather History & Observations

Time (MST) Temp. Dew Point Humidity Pressure Visibility Wind Dir Wind Speed Gust Speed Precip Events Conditions
12:15 AM 78.8 °F 32.0 °F 18% 30.04 in 10.0 mi NNE 18.4 mph - N/A   Clear
12:35 AM 77.0 °F 32.0 °F 19% 30.04 in 10.0 mi NNE 15.0 mph - N/A   Clear
12:55 AM 77.0 °F 32.0 °F 19% 30.05 in 10.0 mi NNE 16.1 mph - N/A   Clear
1:15 AM 77.0 °F 32.0 °F 19% 30.04 in 10.0 mi NNE 17.3 mph 23.0 mph N/A   Clear
1:35 AM 77.0 °F 32.0 °F 19% 30.04 in 10.0 mi NNE 20.7 mph - N/A   Clear
1:55 AM 77.0 °F 32.0 °F 19% 30.04 in 10.0 mi North 18.4 mph - N/A   Clear
2:15 AM 77.0 °F 32.0 °F 19% 30.04 in 10.0 mi North 18.4 mph - N/A   Clear
2:35 AM 77.0 °F 32.0 °F 19% 30.05 in 10.0 mi NNE 17.3 mph 21.9 mph N/A   Clear
2:55 AM 77.0 °F 32.0 °F 19% 30.05 in 10.0 mi NNE 17.3 mph - N/A   Clear
3:15 AM 75.2 °F 32.0 °F 21% 30.04 in 10.0 mi NNE 18.4 mph 23.0 mph N/A   Clear
3:35 AM 75.2 °F 32.0 °F 21% 30.04 in 10.0 mi NNE 21.9 mph 27.6 mph N/A   Clear
3:55 AM 75.2 °F 32.0 °F 21% 30.04 in 10.0 mi NNE 18.4 mph 24.2 mph N/A   Clear
4:15 AM 75.2 °F 33.8 °F 22% 30.04 in 10.0 mi NNE 24.2 mph - N/A   Clear
4:35 AM 75.2 °F 33.8 °F 22% 30.05 in 10.0 mi NNE 21.9 mph 27.6 mph N/A   Clear
4:55 AM 73.4 °F 33.8 °F 23% 30.05 in 10.0 mi NNE 19.6 mph 27.6 mph N/A   Clear
5:15 AM 75.2 °F 33.8 °F 22% 30.04 in 10.0 mi NNE 23.0 mph 28.8 mph N/A   Clear
5:35 AM 73.4 °F 33.8 °F 23% 30.05 in 10.0 mi NNE 24.2 mph 29.9 mph N/A Rain Light Rain
5:55 AM 73.4 °F 33.8 °F 23% 30.05 in 10.0 mi NNE 20.7 mph - N/A   Clear
6:15 AM 73.4 °F 33.8 °F 23% 30.06 in 10.0 mi NNE 21.9 mph 27.6 mph N/A   Clear
6:35 AM 73.4 °F 33.8 °F 23% 30.06 in 10.0 mi NNE 23.0 mph 26.5 mph N/A Rain Light Rain
6:55 AM 73.4 °F 33.8 °F 23% 30.06 in 10.0 mi North 21.9 mph 27.6 mph N/A   Clear
7:15 AM 73.4 °F 33.8 °F 23% 30.07 in 10.0 mi NNE 21.9 mph 28.8 mph N/A   Clear
7:35 AM 73.4 °F 33.8 °F 23% 30.08 in 10.0 mi NNE 20.7 mph 28.8 mph N/A   Clear
7:55 AM 73.4 °F 33.8 °F 23% 30.09 in 10.0 mi North 21.9 mph 27.6 mph N/A   Clear
8:15 AM 73.4 °F 33.8 °F 23% 30.09 in 10.0 mi NNE 24.2 mph 27.6 mph N/A Rain Light Rain
8:35 AM 73.4 °F 33.8 °F 23% 30.10 in 10.0 mi NNE 25.3 mph 29.9 mph N/A Rain Light Rain
8:55 AM 73.4 °F 33.8 °F 23% 30.10 in 10.0 mi NNE 20.7 mph - N/A Rain Light Rain
9:15 AM 75.2 °F 33.8 °F 22% 30.11 in 10.0 mi NNE 19.6 mph 28.8 mph N/A Rain Light Rain
9:35 AM 75.2 °F 33.8 °F 22% 30.10 in 10.0 mi NNE 20.7 mph 28.8 mph N/A Rain Light Rain
9:55 AM 77.0 °F 33.8 °F 21% 30.10 in 10.0 mi North 23.0 mph 28.8 mph N/A Rain Light Rain
10:15 AM 77.0 °F 33.8 °F 21% 30.10 in 10.0 mi NNE 24.2 mph 29.9 mph N/A Rain Light Rain
10:35 AM 78.8 °F 33.8 °F 20% 30.09 in 10.0 mi North 23.0 mph 29.9 mph N/A Rain Light Rain
10:55 AM 80.6 °F 33.8 °F 18% 30.09 in 10.0 mi North 25.3 mph 32.2 mph N/A Rain Light Rain
11:15 AM 80.6 °F 32.0 °F 17% 30.08 in 10.0 mi North 24.2 mph 33.4 mph N/A Rain Light Rain
11:35 AM 80.6 °F 32.0 °F 17% 30.08 in 10.0 mi North 23.0 mph 32.2 mph N/A Rain Light Rain
11:55 AM 82.4 °F 32.0 °F 16% 30.07 in 10.0 mi North 23.0 mph 29.9 mph N/A Rain Light Rain
12:15 PM 82.4 °F 32.0 °F 16% 30.06 in 10.0 mi North 19.6 mph 29.9 mph N/A Rain Light Rain
12:35 PM 82.4 °F 32.0 °F 16% 30.05 in 10.0 mi North 23.0 mph 27.6 mph N/A Rain Light Rain
12:55 PM 84.2 °F 32.0 °F 15% 30.04 in 10.0 mi North 18.4 mph 25.3 mph N/A Rain Light Rain
1:15 PM 84.2 °F 32.0 °F 15% 30.03 in 10.0 mi North 18.4 mph - N/A Rain Light Rain
1:35 PM 86.0 °F 32.0 °F 14% 30.02 in 10.0 mi North 15.0 mph 20.7 mph N/A   Clear
1:55 PM 86.0 °F 32.0 °F 14% 30.01 in 10.0 mi North 19.6 mph - N/A   Clear
2:15 PM 86.0 °F 32.0 °F 14% 30.00 in 10.0 mi North 19.6 mph 24.2 mph N/A   Clear
2:35 PM 86.0 °F 32.0 °F 14% 30.00 in 10.0 mi North 13.8 mph 20.7 mph N/A   Clear
3:15 PM 87.8 °F 32.0 °F 14% 29.99 in 10.0 mi North 17.3 mph - N/A   Clear
3:35 PM 86.0 °F 32.0 °F 14% 29.99 in 10.0 mi North 17.3 mph 20.7 mph N/A   Clear
3:55 PM 86.0 °F 32.0 °F 14% 29.99 in 10.0 mi North 15.0 mph - N/A   Clear
4:15 PM 86.0 °F 32.0 °F 14% 29.99 in 10.0 mi North 13.8 mph - N/A   Clear
4:35 PM 86.0 °F 32.0 °F 14% 29.98 in 10.0 mi North 15.0 mph - N/A   Clear
4:55 PM 86.0 °F 32.0 °F 14% 29.98 in 10.0 mi North 12.7 mph - N/A   Clear
5:15 PM 86.0 °F 32.0 °F 14% 29.98 in 10.0 mi North 11.5 mph - N/A   Clear
5:35 PM 84.2 °F 32.0 °F 15% 29.97 in 10.0 mi North 10.4 mph - N/A   Clear
5:55 PM 84.2 °F 32.0 °F 15% 29.98 in 10.0 mi NNE 9.2 mph - N/A   Clear
6:15 PM 82.4 °F 32.0 °F 16% 29.98 in 10.0 mi NE 8.1 mph - N/A   Clear
6:35 PM 80.6 °F 32.0 °F 17% 29.98 in 10.0 mi NE 9.2 mph - N/A   Clear
6:55 PM 80.6 °F 33.8 °F 18% 29.99 in 10.0 mi North 3.5 mph - N/A   Clear
7:15 PM 78.8 °F 35.6 °F 21% 29.99 in 10.0 mi Calm Calm - N/A   Clear
7:35 PM 77.0 °F 33.8 °F 21% 29.99 in 10.0 mi ENE 5.8 mph - N/A   Clear
7:55 PM 75.2 °F 33.8 °F 22% 29.99 in 10.0 mi ENE 5.8 mph - N/A   Clear
8:15 PM 75.2 °F 33.8 °F 22% 30.00 in 10.0 mi Calm Calm - N/A   Clear
8:35 PM 73.4 °F 33.8 °F 23% 30.00 in 10.0 mi East 3.5 mph - N/A   Clear
8:55 PM 73.4 °F 32.0 °F 22% 30.00 in 10.0 mi NE 5.8 mph - N/A   Clear
9:15 PM 73.4 °F 32.0 °F 22% 30.01 in 10.0 mi ENE 5.8 mph - N/A   Clear
9:35 PM 73.4 °F 32.0 °F 22% 30.01 in 10.0 mi Calm Calm - N/A   Clear
9:55 PM 71.6 °F 32.0 °F 23% 30.01 in 10.0 mi NNE 5.8 mph - N/A   Clear
10:15 PM 71.6 °F 32.0 °F 23% 30.02 in 10.0 mi NNE 4.6 mph - N/A   Clear
10:35 PM 71.6 °F 32.0 °F 23% 30.02 in 10.0 mi Calm Calm - N/A   Clear
10:55 PM 69.8 °F 35.6 °F 28% 30.02 in 10.0 mi Calm Calm - N/A   Clear
11:15 PM 66.2 °F 33.8 °F 30% 30.02 in 10.0 mi East 3.5 mph - N/A   Clear
11:35 PM 69.8 °F 33.8 °F 27% 30.02 in 10.0 mi NE 3.5 mph - N/A   Clear
11:55 PM 66.2 °F 33.8 °F 30% 30.02 in 10.0 mi Calm Calm - N/A   Clear